This demonstration page uses our WeatherBlox Daily Observations layout. Learn more.

Left ArrowRight Arrow

44.8408, -93.29828

Hourly Observations for July 30, 2017

Temp ( °F °C ) Dew Point ( °F °C ) Humidity (%) Winds ( mph kmh ) Pressure ( in mb ) Visibility ( mi km ) Precip ( " mm )
12:53 am 00:53 Clear 71 21.7 60 15.6 68 68 Calm 30.15 1021 10 16 0.00 0.00
1:53 am 01:53 Clear 70 21.1 60 15.6 71 71 Calm 30.16 1021 10 16 0.00 0.00
2:53 am 02:53 Clear 68 20 60 15.6 76 76 Calm 30.17 1022 10 16 0.00 0.00
3:53 am 03:53 Clear 68 20 60 15.6 76 76 Calm 30.18 1022 10 16 0.00 0.00
4:53 am 04:53 Clear 66 18.9 61 16.1 84 84 ESE 3 6 30.18 1022 10 16 0.00 0.00
5:53 am 05:53 Mostly Clear 68 20 60 15.6 76 76 Calm 30.19 1022 10 16 0.00 0.00
6:53 am 06:53 Mostly Sunny 69 20.6 60 15.6 73 73 Calm 30.19 1022 10 16 0.00 0.00
7:53 am 07:53 Partly Cloudy 72 22.2 60 15.6 66 66 Calm 30.20 1023 10 16 0.00 0.00
8:53 am 08:53 Mostly Cloudy 75 23.9 60 15.6 60 60 W 5 7 30.21 1023 10 16 0.00 0.00
9:53 am 09:53 Mostly Cloudy 78 25.6 58 14.4 50 50 W 6 9 30.20 1023 10 16 0.00 0.00
10:53 am 10:53 Mostly Cloudy 80 26.7 58 14.4 47 47 WNW 5 7 30.20 1023 10 16 0.00 0.00
11:53 am 11:53 Mostly Cloudy 82 27.8 58 14.4 44 44 VRB 3 6 30.20 1023 10 16 0.00 0.00
12:53 pm 12:53 Mostly Cloudy 83 28.3 58 14.4 43 43 SSE 10 17 30.20 1023 10 16 0.00 0.00
1:53 pm 13:53 Mostly Cloudy 83 28.3 54 12.2 37 37 SW 7 11 30.19 1022 10 16 0.00 0.00
2:53 pm 14:53 Mostly Cloudy 84 28.9 54 12.2 36 36 SSW 10 17 30.19 1022 10 16 0.00 0.00
3:53 pm 15:53 Mostly Cloudy 85 29.4 56 13.3 37 37 WSW 7 11 30.17 1022 10 16 0.00 0.00
4:53 pm 16:53 Mostly Cloudy 84 28.9 56 13.3 38 38 WSW 9 15 30.15 1021 10 16 0.00 0.00
5:53 pm 17:53 Mostly Cloudy 84 28.9 56 13.3 38 38 W 8 13 30.15 1021 10 16 0.00 0.00
6:53 pm 18:53 Mostly Cloudy 83 28.3 55 12.8 38 38 WSW 7 11 30.14 1021 10 16 0.00 0.00
7:53 pm 19:53 Cloudy 82 27.8 56 13.3 41 41 WSW 7 11 30.14 1021 10 16 0.00 0.00
8:53 pm 20:53 Mostly Cloudy 81 27.2 56 13.3 42 42 W 7 11 30.15 1021 10 16 0.00 0.00
9:53 pm 21:53 Mostly Cloudy 78 25.6 57 13.9 48 48 Calm 30.16 1021 10 16 0.00 0.00
10:53 pm 22:53 Mostly Cloudy 78 25.6 57 13.9 48 48 Calm 30.16 1021 10 16 0.00 0.00
11:53 pm 23:53 Partly Cloudy 77 25 58 14.4 52 52 Calm 30.16 1021 10 16 0.00 0.00

Powered by AerisWeather